Weather Roundup
Issued by NWS

Home | Current Version | Previous Version | Text Only | Print | Product List | Glossary On
Versions: 1 2 3 4 5 6 7 8 9 10 11 12 13 14 15 16 17 18 19 20 21 22 23 24 25 26 27 28 29 30 31 32 33 34 35 36 37 38 39 40 41 42 43 44 45 46 47 48 49 50
000
NZUS93 KARX 020859
HRRWXR

CURRENT HOURLY OBSERVATIONS ACROSS
MUCH OF THE UPPER MISSISSIPPI VALLEY
NATIONAL WEATHER SERVICE LA CROSSE WI
400 AM CDT WED SEP 02 2015


...SOUTHEAST MINNESOTA...


CITY           SKY/WX    TMP DP  RH WIND       PRES   REMARKS
ROCHESTER      MOCLDY    71  68  90 S8        29.97R
ROCHESTER/MAYO FAIR      74  69  81 S6        29.96R
WINONA         MOCLDY    73  72  94 CALM      29.95R
AUSTIN         MOCLDY    73  70  88 S6        29.95S
ALBERT LEA     CLOUDY    72  70  94 CALM      29.95R
DODGE CENTER   CLOUDY    72  68  88 S6        29.97R
PRESTON        MOCLDY    71  67  88 S8        29.99R
OWATONNA       TSTM      73  70  88 W17G25    29.98R
FARIBAULT      TSTM      70  68  94 W14G21    29.98R
$$

...ELSEWHERE IN MINNESOTA...


CITY           SKY/WX    TMP DP  RH WIND       PRES   REMARKS
MINNEAPOLIS    RAIN      71  68  90 W12       29.93R FOG
INTNL FALLS    CLEAR     53  51  93 SE5       29.91S
DULUTH         CLOUDY    70  69  97 E6        29.93R FOG
RED WING       CLOUDY    73  72  94 CALM      29.92S
REDWOOD FALLS  CLOUDY    67  64  90 SE9       29.88F
MANKATO        CLOUDY    66  63  88 E14       29.95F THUNDER
WORTHINGTON    CLEAR     68  64  88 E6        29.90R
FAIRMONT       CLOUDY    73  64  73 S7        29.91R
$$

...SOUTHWEST WISCONSIN...


CITY           SKY/WX    TMP DP  RH WIND       PRES   REMARKS
LA CROSSE      PTCLDY    75  71  87 SE6       29.95R
PRAIRIE DU CHI PTCLDY    71  67  88 CALM      29.98S
BOSCOBEL       MOCLDY    67  66  97 CALM      29.98S FOG
LONE ROCK      PTCLDY    66  64  94 CALM      29.99S FOG
PLATTEVILLE    CLEAR     69  68  95 S6        30.01S
FORT MC COY    PTCLDY    66  65  96 CALM      29.98R FOG
CAMP DOUGLAS   FOG       66  66 100 SE2       29.97S VSB 3/4
VIROQUA          N/A     72  72 100 S3        30.00S
WIS DELLS      PTCLDY    73  68  84 CALM      29.98S
$$

...ELSEWHERE IN WISCONSIN...


CITY           SKY/WX    TMP DP  RH WIND       PRES   REMARKS
MILWAUKEE      MOCLDY    75  69  81 W6        30.00R
MADISON        MOCLDY    75  69  81 SW3       29.99S
GREEN BAY      PTCLDY    71  69  93 CALM      29.96S FOG
EAU CLAIRE     CLOUDY    73  71  93 SW5       29.93S
BLACK RVR FLS  FOG       65  65 100 CALM      29.96S VSB<1/4
MEDFORD        FOG       68  68 100 CALM      29.98S VSB 1/4
WAUSAU         PTCLDY    71  70  96 CALM      29.96S FOG
WIS RAPIDS     PTCLDY    70  68  93 SW3       29.99S FOG
MARSHFIELD     FOG       70  67  90 SW6       29.98S VSB 1/4
RICE LAKE      CLOUDY    72  70  96 CALM      29.94F THUNDER FOG
$$

...NORTHEAST IOWA...


CITY           SKY/WX    TMP DP  RH WIND       PRES   REMARKS
DECORAH        MOCLDY    73  68  83 VRB7      29.98R
MASON CITY     LGT RAIN  70  66  87 S10       29.97S
CHARLES CITY   MOCLDY    72  72 100 S6        29.98S
OELWEIN        PTCLDY    70  68  94 S6        30.00R
$$

...ELSEWHERE IN IOWA...


CITY           SKY/WX    TMP DP  RH WIND       PRES   REMARKS
DES MOINES     TSTM      74  68  81 SW14      29.98R
IOWA CITY      CLEAR     68  67  96 CALM      30.01S FOG
FORT DODGE     CLOUDY    72  66  83 S9        29.96R
$$

...NORTHERN ILLINOIS...


CITY           SKY/WX    TMP DP  RH WIND       PRES   REMARKS
CHICAGO-OHARE  PTCLDY    73  69  87 W3        30.02S
CHICAGO-MIDWAY PTCLDY    75  68  78 SW6       30.02S
MOLINE         CLEAR     72  67  84 CALM      30.02R
ROCKFORD       MOCLDY    70  66  87 S5        30.03S
PEORIA         CLEAR     73  68  84 CALM      30.05R
$$

NOTE: "FAIR" INDICATES FEW OR NO CLOUDS BELOW 12,000 FEET WITH NO
SIGNIFICANT WEATHER AND/OR OBSTRUCTIONS TO VISIBILITY. WIND
SPEEDS ARE IN MILES-PER-HOUR.



USA.gov is the U.S. government's official web portal to all federal, state and local government web resources and services.